Wallops Island, VA

3:02 AM EST on December 16, 2019 (GMT -0500)
Wallops Flight Facility

Weather History for KWAL - October, 2019

Change the Weather History Date:

Monday, October 21, 2019

  Actual Average Record
Temperature  
Mean Temperature 58 °F 57 °F  
Max Temperature 63 °F 67 °F 81 °F (1984)
Min Temperature 53 °F 48 °F 31 °F (1974)
Degree Days  
Heating Degree Days 7    
Month to date heating degree days 71  
Since 1 July heating degree days 80  
Cooling Degree Days 0    
Month to date cooling degree days 53  
Year to date cooling degree days 1800  
Growing Degree Days 8 (Base 50)    
Moisture  
Dew Point 55 °F    
Average Humidity 94    
Maximum Humidity 100    
Minimum Humidity 78    
Precipitation  
Precipitation 0.00 in 0.10 in 0.48 in (2005)
Month to date precipitation 7.25 2.12  
Year to date precipitation 41.58 33.49  
Sea Level Pressure  
Sea Level Pressure 30.01 in    
Wind  
Wind Speed 11 mph ()    
Max Wind Speed 20 mph    
Max Gust Speed 32 mph    
Visibility 9.2 miles    
Events      
T = Trace of Precipitation, MM = Missing Value Source: Averaged Metar Reports

Daily Weather History Graph

Daily Weather History Graph

Search for Another Location

Airport or City:

Astronomy

Oct. 21, 2019 Rise Set
Actual Time 7:15 AM EDT 6:16 PM EDT
Civil Twilight 6:49 AM EDT 6:43 PM EDT
Nautical Twilight 6:18 AM EDT 7:13 PM EDT
Astronomical Twilight 5:48 AM EDT 7:44 PM EDT
Moon No Moon Rise 2:28 PM EDT (10/21)
Length of Visible Light 11h 53m
Length of Day
11h 00m
Waning Gibbous, 48% of the Moon is Illuminated
Oct 21
Waning Gibbous
Oct 27
New
Nov 4
First Quarter
Nov 12
Full
Nov 19
Last Quarter

Hourly Weather History & Observations

Time (EDT) Temp. Dew Point Humidity Pressure Visibility Wind Dir Wind Speed Gust Speed Precip Events Conditions
12:54 AM 57.0 °F 57.0 °F 100% 29.82 in 10.0 mi North 19.6 mph 32.2 mph N/A   Overcast
1:02 AM 57.0 °F 57.0 °F 100% 29.83 in 10.0 mi North 16.1 mph 27.6 mph N/A   Overcast
1:28 AM 57.0 °F 57.0 °F 100% 29.84 in 6.0 mi North 12.7 mph 23.0 mph N/A   Overcast
1:51 AM 55.4 °F 55.4 °F 100% 29.86 in 8.0 mi NNW 12.7 mph 19.6 mph N/A   Overcast
1:54 AM 55.9 °F 55.9 °F 100% 29.85 in 8.0 mi NNW 12.7 mph - N/A   Overcast
2:54 AM 54.0 °F 54.0 °F 100% 29.88 in 5.0 mi NNW 13.8 mph 24.2 mph N/A   Overcast
3:47 AM 54.0 °F 54.0 °F 100% 29.91 in 10.0 mi NNW 10.4 mph - N/A   Overcast
3:54 AM 54.0 °F 54.0 °F 100% 29.90 in 10.0 mi NNW 15.0 mph 21.9 mph N/A   Overcast
4:54 AM 54.0 °F 54.0 °F 100% 29.93 in 10.0 mi NNW 15.0 mph - N/A   Overcast
5:54 AM 54.0 °F 54.0 °F 100% 29.95 in 8.0 mi NNW 13.8 mph - N/A   Overcast
6:17 AM 53.1 °F 53.1 °F 100% 29.97 in 10.0 mi NNW 13.8 mph 21.9 mph N/A   Overcast
6:54 AM 53.1 °F 53.1 °F 100% 29.98 in 8.0 mi North 9.2 mph - N/A   Overcast
7:54 AM 54.0 °F 53.1 °F 97% 30.00 in 7.0 mi NNW 11.5 mph - N/A   Overcast
8:41 AM 54.0 °F 54.0 °F 100% 30.03 in 8.0 mi NNW 10.4 mph - N/A   Overcast
8:54 AM 55.0 °F 53.1 °F 93% 30.03 in 9.0 mi NNW 10.4 mph - N/A   Overcast
9:08 AM 55.0 °F 53.1 °F 93% 30.04 in 10.0 mi North 8.1 mph - N/A   Overcast
9:37 AM 55.9 °F 54.0 °F 93% 30.04 in 10.0 mi NNW 10.4 mph - N/A   Overcast
9:54 AM 57.0 °F 54.0 °F 89% 30.03 in 10.0 mi NNW 10.4 mph - N/A   Mostly Cloudy
10:17 AM 57.0 °F 54.0 °F 89% 30.04 in 10.0 mi North 9.2 mph - N/A   Mostly Cloudy
10:54 AM 59.0 °F 54.0 °F 83% 30.05 in 10.0 mi NW 9.2 mph - N/A   Overcast
11:54 AM 60.1 °F 55.0 °F 83% 30.05 in 10.0 mi Variable 6.9 mph - N/A   Overcast
12:54 PM 62.1 °F 55.0 °F 78% 30.05 in 10.0 mi Variable 4.6 mph - N/A   Overcast
1:54 PM 62.1 °F 55.0 °F 78% 30.04 in 10.0 mi East 6.9 mph - N/A   Mostly Cloudy
2:54 PM 61.0 °F 55.0 °F 81% 30.03 in 10.0 mi NE 12.7 mph - N/A   Overcast
3:16 PM 62.1 °F 55.0 °F 78% 30.04 in 10.0 mi ENE 10.4 mph - N/A   Scattered Clouds
3:51 PM 60.8 °F 55.4 °F 82% 30.06 in 10.0 mi NE 10.4 mph - N/A   Mostly Cloudy
3:54 PM 60.1 °F 55.0 °F 83% 30.06 in 10.0 mi ENE 9.2 mph - N/A   Mostly Cloudy
4:54 PM 59.0 °F 55.0 °F 87% 30.07 in 10.0 mi NE 9.2 mph - N/A   Overcast
5:54 PM 57.9 °F 55.9 °F 93% 30.06 in 10.0 mi NE 10.4 mph - N/A   Overcast
6:54 PM 57.9 °F 55.9 °F 93% 30.08 in 10.0 mi ENE 10.4 mph - N/A   Overcast
7:24 PM 57.9 °F 55.9 °F 93% 30.10 in 8.0 mi ENE 8.1 mph - N/A   Overcast
7:44 PM 57.9 °F 57.0 °F 97% 30.10 in 10.0 mi ENE 6.9 mph - N/A   Overcast
7:54 PM 57.0 °F 57.0 °F 100% 30.09 in 10.0 mi ENE 4.6 mph - N/A   Overcast
8:51 PM 57.2 °F 57.2 °F 100% 30.10 in 9.0 mi NE 4.6 mph - N/A   Overcast
8:54 PM 57.0 °F 57.0 °F 100% 30.09 in 9.0 mi NE 4.6 mph - N/A   Overcast
9:54 PM 57.0 °F 57.0 °F 100% 30.09 in 9.0 mi ENE 3.5 mph - N/A   Overcast
10:54 PM 57.0 °F 57.0 °F 100% 30.09 in 7.0 mi NE 4.6 mph - N/A   Overcast
11:54 PM 57.9 °F 57.9 °F 100% 30.08 in 10.0 mi East 4.6 mph - N/A   Overcast